This demonstration page uses our WeatherBlox Daily Observations layout. Learn more.

Left ArrowRight Arrow

Hourly Observations for April 23, 2020

Temp ( °F °C ) Dew Point ( °F °C ) Humidity (%) Winds ( mph kmh ) Pressure ( in mb ) Visibility ( mi km ) Precip ( " mm )
12:53 am 00:53 Clear 65 18.3 51 10.6 61 61 Calm 30.19 1022 10 16 0.00 0.00
1:53 am 01:53 Clear 62 16.7 51 10.6 67 67 WNW 3 6 30.20 1023 10 16 0.00 0.00
2:53 am 02:53 Clear 58 14.4 51 10.6 78 78 Calm 30.20 1023 10 16 0.00 0.00
3:53 am 03:53 Clear 56 13.3 51 10.6 84 84 Calm 30.19 1023 10 16 0.00 0.00
4:53 am 04:53 Clear 55 12.8 50 10 83 83 N 3 6 30.19 1022 10 16 0.00 0.00
5:53 am 05:53 Clear 52 11.1 49 9.4 89 89 Calm 30.19 1022 10 16 0.00 0.00
6:53 am 06:53 Sunny 52 11.1 49 9.4 89 89 WSW 3 6 30.19 1022 10 16 0.00 0.00
7:53 am 07:53 Sunny 58 14.4 51 10.6 78 78 N 3 6 30.21 1023 10 16 0.00 0.00
8:53 am 08:53 Sunny 63 17.2 53 11.7 70 70 Calm 30.22 1023 10 16 0.00 0.00
9:53 am 09:53 Sunny 69 20.6 55 12.8 61 61 Calm 30.21 1023 10 16 0.00 0.00
10:53 am 10:53 Sunny 73 22.8 46 7.8 38 38 VRB 5 7 30.19 1022 10 16 0.00 0.00
11:53 am 11:53 Sunny 75 23.9 46 7.8 36 36 Calm 30.17 1022 10 16 0.00 0.00
12:53 pm 12:53 Sunny 77 25 46 7.8 33 33 VRB 3 6 30.16 1021 10 16 0.00 0.00
1:53 pm 13:53 Sunny 78 25.6 44 6.7 30 30 VRB 3 6 30.14 1021 10 16 0.00 0.00
2:53 pm 14:53 Sunny 79 26.1 46 7.8 31 31 S 7 11 30.11 1020 10 16 0.00 0.00
3:53 pm 15:53 Sunny 80 26.7 41 5 25 25 W 5 7 30.09 1019 10 16 0.00 0.00
4:53 pm 16:53 Sunny 80 26.7 43 6.1 27 27 SE 5 7 30.06 1018 10 16 0.00 0.00
5:53 pm 17:53 Sunny 80 26.7 45 7.2 29 29 SE 6 9 30.06 1018 10 16 0.00 0.00
6:53 pm 18:53 Sunny 80 26.7 44 6.7 28 28 Calm 30.05 1018 10 16 0.00 0.00
7:53 pm 19:53 Sunny 74 23.3 50 10 43 43 Calm 30.06 1018 10 16 0.00 0.00
8:53 pm 20:53 Clear 70 21.1 52 11.1 53 53 N 6 9 30.07 1018 10 16 0.00 0.00
9:53 pm 21:53 Clear 70 21.1 43 6.1 38 38 W 8 13 30.10 1019 10 16 0.00 0.00
10:53 pm 22:53 Clear 63 17.2 47 8.3 56 56 NNE 6 9 30.09 1019 10 16 0.00 0.00
11:53 pm 23:53 Clear 63 17.2 47 8.3 56 56 N 7 11 30.11 1020 10 16 0.00 0.00

Powered by AerisWeather